Location: Lake Arresoe
(56.0000°N, 12.5000°E)
Time: 07:37:17
(UTC+02:00)

Okean 3 - Pass Details

Date: 17 August 2020
Orbit: 577 x 600 km, 82.5° (Epoch: 21 September)

Event Time Altitude Azimuth Distance (km) Brightness Sun altitude
Rises 22:38:12 0° 346° (NNW) 2,860 8.2 -13.7°
Reaches altitude 10° 22:40:25 10° 344° (NNW) 1,954 7.2 -13.9°
Maximum altitude 22:44:43 71° 262° (W) 643 3.7 -14.2°
Enters shadow 22:47:52 18° 180° (S) 1,497 5.1 -14.5°
